Regional Weather Roundup
Issued by NWS

Home | Current Version | Previous Version | Text Only | Print | Product List | Glossary On
Versions: 1 2 3 4 5 6 7 8 9 10 11 12 13 14 15 16 17 18 19 20 21 22 23 24 25 26 27 28 29 30 31 32 33 34 35 36 37 38 39 40 41 42 43 44 45 46 47 48 49 50
000
ASUS44 KFWD 281901
RWRTX
NORTH TEXAS HOURLY WEATHER ROUNDUP
NATIONAL WEATHER SERVICE FORT WORTH TX
200 PM CDT SAT MAY 28 2016

NOTE: "FAIR" INDICATES FEW OR NO CLOUDS BELOW 12,000 FEET WITH NO
SIGNIFICANT WEATHER AND/OR OBSTRUCTIONS TO VISIBILITY.

TXZ118-119-282000-
DALLAS/FORT WORTH METROPLEX

CITY           SKY/WX    TMP DP  RH WIND       PRES   REMARKS
DFW AIRPORT    CLOUDY    80  70  71 S6        29.95F
DALLAS LOVE    PTSUNNY   80  70  71 S8        29.95F
FTW MEACHAM    MOSUNNY   84  70  62 S10       29.94F
DAL-EXECUTIVE  CLOUDY    78  70  76 VRB3      29.96F
FTW-ALLIANCE   MOSUNNY   83  70  64 S10       29.94F
FTW-NAS-JRB    MOSUNNY   83  71  67 S12G20    29.94F
FTW-SPINKS     PTSUNNY   82  72  69 SW7       29.96F
ARLINGTON      PTSUNNY   83  71  67 VRB7      29.95F
MESQUITE       CLOUDY    77  70  78 S6        29.97F
LANCASTER      CLOUDY    76  68  76 SE3       29.97F
$$

TXZ091>094-102>105-117-120-121-131>134-282000-
NORTH CENTRAL TEXAS

CITY           SKY/WX    TMP DP  RH WIND       PRES   REMARKS
BRIDGEPORT     MOSUNNY   85  71  61 S6        29.95F HX  90
DECATUR        MOSUNNY   80  70  70 SE7       29.95F
DENTON         SUNNY     81  70  69 S8        29.94F
MCKINNEY       SUNNY     81  69  67 S10       29.95F
ROCKWALL       CLOUDY    78  70  75 SW12      29.96F
TERRELL        CLOUDY    76  69  79 SE7       29.98F
WAXAHACHIE     CLOUDY    79  74  83 SE6       29.97F
$$

TXZ083>090-098>101-113>116-127>130-139>142-154-155-282000-
WESTERN NORTH TEXAS

CITY           SKY/WX    TMP DP  RH WIND       PRES   REMARKS
WICHITA FALLS  SUNNY     82  65  56 W9        29.94F
WF-KICKAPOO    SUNNY     84  64  51 N9        29.95S
VERNON         SUNNY     82  54  37 NE6       29.96F
ABILENE        SUNNY     88  64  44 S9        29.95F
MINERAL WELLS  SUNNY     83  72  69 S9        29.93F
STEPHENVILLE   SUNNY     85  72  66 SW5       29.98F HX  90
COMANCHE       SUNNY     87  73  62 S7        29.96S HX  94
BROWNWOOD      SUNNY     86  72  62 S12       29.95F HX  92
COLEMAN        SUNNY     87  68  53 S9        29.96F HX  90
$$

TXZ143>147-156>162-174-175-282000-
CENTRAL TEXAS

CITY           SKY/WX    TMP DP  RH WIND       PRES   REMARKS
WACO           PTSUNNY   83  72  69 S7        29.95F
WACO-MCGREGOR  PTSUNNY  N/A N/A N/A S6          N/A
HILLSBORO      PTSUNNY   82  73  73 S10       29.96F
CORSICANA      PTSUNNY   85  72  65 S10       29.98F HX  91
MEXIA          CLOUDY    81  73  77 S10       29.97S
HEARNE         PTSUNNY   85  76  73 CALM      29.96F HX  94
TEMPLE         MOSUNNY   85  76  74 S14       29.95F HX  94
KILLEEN        PTSUNNY   87  73  62 S14       29.94F HX  95
KILLEEN-SKYLRK MOSUNNY   88  75  65 S10       29.94F HX  97
FORT HOOD      MOSUNNY   87  75  68 S13       29.92F HX  97
HAMILTON       MOSUNNY   87  71  58 S10       29.97F HX  92
$$

TXZ095>097-106>112-122>126-135>138-148>153-164>167-282000-
EAST TEXAS

CITY           SKY/WX    TMP DP  RH WIND       PRES   REMARKS
PARIS          SUNNY     79  63  57 S5        29.98F
SULPHUR SPRNGS PTSUNNY   81  68  63 S8        30.00F
MINEOLA        PTSUNNY   75  70  83 SE3       30.00F
TYLER          CLOUDY    78  68  71 CALM      30.00S
LONGVIEW       PTSUNNY   82  71  69 W10       29.99S
PALESTINE      CLOUDY    80  73  78 CALM      30.00S
JACKSONVILLE   PTSUNNY   79  72  79 W7        30.03S
NACOGDOCHES    PTSUNNY   84  73  70 NW6       29.98S HX  91
LUFKIN         PTSUNNY   86  72  62 W7        29.98S HX  92
$$

SUPPLEMENTAL OBSERVATIONS (CENTRAL)

CITY           SKY/WX    TMP DP  RH WIND       PRES   REMARKS
$$

SUPPLEMENTAL OBSERVATIONS (WEST)

CITY           SKY/WX    TMP DP  RH WIND       PRES   REMARKS
$$

SUPPLEMENTAL OBSERVATIONS (EAST)

CITY           SKY/WX    TMP DP  RH WIND       PRES   REMARKS
$$

SUPPLEMENTAL OBSERVATIONS ARE A COLLECTION OF AUTOMATED INSTRUMENTS
THAT ARE MAINTAINED BY A VARIETY OF FEDERAL AND STATE AGENCIES.
CERTAIN ELEMENTS...SUCH AS HUMIDITY VALUES AND SUSTAINED WIND
SPEEDS...MAY BE APPROXIMATED.





USA.gov is the U.S. government's official web portal to all federal, state and local government web resources and services.